#timestamp,LO_Frequency,Hit,StdDev 
1610071215.5,286046999.7,N
1610071235.3,286047002.4,N
1610071255.1,286047002.4,N
1610071275.9,286047000.4,N
1610071295.7,286046998.2,N
1610071315.5,286047000.6,N
1610071335.4,286046999.7,N
1610071355.2,286047000.5,N
1610071375.1,286047000.9,N
1610071376.0,286047000.9,N
1610071395.8,286047000.3,N
1610071415.6,286047000.9,N
1610071435.5,286047000.7,N
1610071455.3,286046998.6,N
1610071475.2,286047002.2,N
1610071495.9,286047002.5,N
1610071515.7,286047002.3,N
1610071535.6,286047002.2,N
1610071555.4,286047003.7,N
1610071575.2,286047004.3,N
1610071595.1,286047004.4,N
1610071596.0,286047004.4,N
1610071615.8,286047005.2,N
1610071635.7,286047003.8,N
1610071655.5,286047005.6,N
1610071675.3,286047006.7,Y
1610071695.2,286047005.9,P
1610071715.0,286047002.0,N
1610071715.9,286047002.0,N
1610071735.8,286047004.4,N
1610071755.6,286047001.8,N
1610071775.4,286047001.7,N
1610071795.3,286047001.4,N
1610071815.1,286047000.2,N
1610071835.9,286046998.7,N
1610071855.7,286046998.9,N
1610071875.5,286046998.8,N
1610071895.4,286046999.3,N
1610071915.2,286046996.8,N
1610071935.0,286046998.7,N
1610071936.0,286046998.7,N
1610071955.8,286046998.7,N
1610071975.6,286046998.9,N
1610071995.5,286046996.6,N
1610072015.3,286047000.8,N
1610072035.1,286046999.5,N
1610072055.9,286047000.5,N
1610072075.7,286047002.5,N
1610072095.6,286047000.4,N
1610072115.4,286047000.2,N
1610072135.2,286047000.0,N
1610072155.1,286046998.3,N
1610072156.0,286046998.3,N
1610072175.8,286047004.1,N
1610072195.7,286047002.3,N
1610072215.5,286047002.8,N
1610072235.3,286047002.5,N
1610072255.2,286047001.2,N
1610072275.0,286047000.4,N
1610072275.9,286047000.4,N
1610072295.8,286047000.7,N
1610072315.6,286046998.9,N
1610072335.4,286046998.9,N
1610072355.3,286047001.0,N
1610072375.1,286047001.2,N
1610072395.8,286047000.2,N
1610072415.7,286047000.0,N
1610072435.5,286047001.2,N
1610072455.4,286046998.7,N
1610072475.2,286046999.5,N
1610072495.0,286046996.5,N
1610072495.9,286046996.5,N
1610072515.8,286046998.8,N
1610072535.6,286046998.7,N
1610072555.5,286047001.0,N
1610072575.3,286046997.2,N
1610072595.1,286047001.2,N
1610072615.9,286046999.5,N
1610072635.7,286046997.4,N
1610072655.5,286046997.7,N
1610072675.4,286046997.4,N
1610072695.2,286046997.3,N
1610072715.1,286046995.2,N
1610072716.0,286046995.2,N
1610072735.8,286046995.2,N
1610072755.6,286046995.7,N
1610072775.5,286046996.1,N
1610072795.3,286046993.8,Y
1610072815.2,286046997.6,P
1610072835.9,286046997.8,P
1610072855.7,286046996.8,P
1610072875.6,286046997.1,Y
1610072895.4,286046998.7,P
1610072915.3,286046998.6,N
1610072935.1,286046999.5,N
1610072936.0,286046999.5,N
1610072955.8,286046996.5,Y
1610072975.7,286046996.5,P
1610072995.5,286046999.4,N
1610073015.4,286046998.2,N
1610073035.2,286046998.5,N
1610073055.0,286047002.1,N
1610073055.9,286047002.1,N
1610073075.8,286047002.9,N
1610073095.6,286047003.8,N
1610073115.4,286047002.0,N
1610073135.3,286047002.5,N
1610073155.1,286047000.2,N
1610073175.9,286047002.1,N
1610073195.7,286047000.1,N
1610073215.5,286047000.8,N
1610073235.4,286047000.2,N
1610073255.2,286046998.6,N
1610073275.1,286046998.3,N
1610073276.0,286046998.3,N
1610073295.8,286046999.1,N
1610073315.6,286046996.9,N
1610073335.5,286047000.5,N
1610073355.3,286047002.3,N
1610073375.1,286047002.1,N
1610073395.9,286047002.1,N
1610073415.7,286047002.8,N
1610073435.6,286047001.9,N
1610073455.4,286047002.4,N
1610073475.2,286047001.7,N
1610073495.1,286047001.7,N
1610073496.0,286047001.7,N
1610073515.8,286047002.9,N
1610073535.7,286047005.8,Y
1610073555.5,286047003.1,P
1610073575.3,286047004.8,P
1610073595.2,286047005.1,P
1610073615.0,286047002.9,N
1610073615.9,286047002.9,N
1610073635.8,286047001.3,N
1610073655.6,286047001.9,N
1610073675.4,286047002.3,N
1610073695.3,286047002.5,N
1610073715.1,286047001.4,N
1610073735.8,286047001.8,N
1610073755.7,286047001.8,N
1610073775.5,286047000.6,N
1610073795.4,286047000.7,N
1610073815.2,286046999.9,N
1610073835.0,286047000.4,N
1610073835.9,286047000.4,N
1610073855.8,286047001.9,N
1610073875.6,286047002.8,N
1610073895.5,286046998.4,N
1610073915.3,286046999.4,N
1610073935.1,286046999.2,N
1610073955.9,286046996.9,N
1610073975.7,286046994.9,N
1610073995.6,286046997.2,N
1610074015.4,286046997.7,N
1610074035.2,286046996.5,N
1610074055.1,286046999.5,N
1610074056.0,286046999.5,N
1610074075.8,286047001.2,N
1610074095.7,286047001.1,N
1610074115.5,286047001.0,N
1610074135.3,286046998.2,N
1610074155.2,286047000.6,N
1610074175.0,286047000.5,N
1610074175.9,286047000.5,N
1610074195.7,286046999.7,N
1610074215.6,286047002.5,N
1610074235.4,286047002.0,N
1610074255.3,286047005.0,N
1610074275.1,286047003.8,N
1610074295.8,286047002.6,N
1610074315.7,286047002.3,N
1610074335.5,286047001.4,N
1610074355.4,286047001.5,N
1610074375.2,286047000.4,N
1610074395.0,286047000.6,N
1610074395.9,286047000.6,N
1610074415.8,286047000.4,N
1610074435.6,286047002.6,N
1610074455.5,286047000.5,N
1610074475.3,286047002.7,N
1610074495.1,286047000.1,N
1610074515.9,286047004.2,N
1610074535.7,286047002.3,N
1610074555.5,286047002.6,N
1610074575.4,286047000.6,N
1610074595.2,286046998.6,N
1610074615.1,286046998.2,N
1610074616.0,286046998.2,N
1610074635.8,286046999.3,N
1610074655.6,286046999.3,N
1610074675.5,286046998.7,N
1610074695.3,286046999.2,N
1610074715.2,286046997.0,N
1610074735.9,286047000.4,N
1610074755.7,286047002.8,N
1610074775.6,286047000.2,N
1610074795.4,286047001.0,N
